Time,TemperatureF,DewpointF,PressureIn,WindDirection,WindDirectionDegrees,WindSpeedMPH,WindSpeedGustMPH,Humidity,HourlyPrecipIn,Conditions,Clouds,dailyrainin,SolarRadiationWatts/m^2,SoftwareType,DateUTC
2013-03-15 00:02:00,37.0,32.0,-100.00,SSE,163,3.0,7.0,82,0.00,,,0.01,0.000000,,2013-03-15 05:02:00,
2013-03-15 00:32:00,36.0,32.0,-100.00,SSE,157,3.0,6.0,85,0.00,,,0.01,0.000000,,2013-03-15 05:32:00,
2013-03-15 00:42:00,36.0,32.0,-100.00,SSE,157,3.0,6.0,85,0.00,,,0.01,0.000000,,2013-03-15 05:42:00,
2013-03-15 00:52:00,36.0,32.0,-100.00,SSE,157,3.0,6.0,85,0.00,,,0.01,0.000000,,2013-03-15 05:52:00,
2013-03-15 01:02:00,36.0,32.0,-100.00,SSE,157,3.0,6.0,85,0.00,,,0.01,0.000000,,2013-03-15 06:02:00,
2013-03-15 01:32:00,35.0,32.0,-100.00,SSE,168,4.0,9.0,87,0.00,,,0.01,0.000000,,2013-03-15 06:32:00,
2013-03-15 01:42:00,35.0,32.0,-100.00,SSE,168,4.0,9.0,87,0.00,,,0.01,0.000000,,2013-03-15 06:42:00,
2013-03-15 01:53:00,35.0,32.0,-100.00,SSE,168,4.0,9.0,87,0.00,,,0.01,0.000000,,2013-03-15 06:53:00,
2013-03-15 02:02:00,35.0,32.0,-100.00,SSE,168,4.0,9.0,87,0.00,,,0.01,0.000000,,2013-03-15 07:02:00,
2013-03-15 02:32:00,35.0,32.0,-100.00,SSE,155,3.0,8.0,89,0.00,,,0.01,0.000000,,2013-03-15 07:32:00,
2013-03-15 02:42:00,35.0,32.0,-100.00,SSE,155,3.0,8.0,89,0.00,,,0.01,0.000000,,2013-03-15 07:42:00,
2013-03-15 02:52:00,35.0,32.0,-100.00,SSE,155,3.0,8.0,89,0.00,,,0.01,0.000000,,2013-03-15 07:52:00,
2013-03-15 03:02:00,35.0,32.0,-100.00,SSE,155,3.0,8.0,89,0.00,,,0.01,0.000000,,2013-03-15 08:02:00,
2013-03-15 03:33:00,34.0,32.0,-100.00,SSE,151,3.0,6.0,92,0.00,,,0.01,0.000000,,2013-03-15 08:33:00,
2013-03-15 03:42:00,34.0,32.0,-100.00,SSE,151,3.0,6.0,92,0.00,,,0.01,0.000000,,2013-03-15 08:42:00,
2013-03-15 03:52:00,34.0,32.0,-100.00,SSE,151,3.0,6.0,92,0.00,,,0.01,0.000000,,2013-03-15 08:52:00,
2013-03-15 04:02:00,34.0,32.0,-100.00,SSE,151,3.0,6.0,92,0.00,,,0.01,0.000000,,2013-03-15 09:02:00,
2013-03-15 04:33:00,35.0,32.0,-100.00,SSE,167,4.0,7.0,89,0.00,,,0.01,0.000000,,2013-03-15 09:33:00,
2013-03-15 04:43:00,35.0,32.0,-100.00,SSE,167,4.0,7.0,89,0.00,,,0.01,0.000000,,2013-03-15 09:43:00,
2013-03-15 04:53:00,35.0,32.0,-100.00,SSE,167,4.0,7.0,89,0.00,,,0.01,0.000000,,2013-03-15 09:53:00,
2013-03-15 05:03:00,35.0,32.0,-100.00,SSE,167,4.0,7.0,89,0.00,,,0.01,0.000000,,2013-03-15 10:03:00,
2013-03-15 05:33:00,37.0,31.0,-100.00,SSW,201,4.0,9.0,79,0.00,,,0.01,0.000000,,2013-03-15 10:33:00,
2013-03-15 05:43:00,37.0,31.0,-100.00,SSW,201,4.0,9.0,79,0.00,,,0.01,0.000000,,2013-03-15 10:43:00,
2013-03-15 05:52:00,37.0,31.0,-100.00,SSW,201,4.0,9.0,79,0.00,,,0.01,0.000000,,2013-03-15 10:52:00,
2013-03-15 06:03:00,37.0,31.0,-100.00,SSW,201,4.0,9.0,79,0.00,,,0.01,0.000000,,2013-03-15 11:03:00,
2013-03-15 06:32:00,38.0,29.0,-100.00,SSW,209,4.0,7.0,69,0.00,,,0.01,0.000000,,2013-03-15 11:32:00,
2013-03-15 06:42:00,38.0,29.0,-100.00,SSW,209,4.0,7.0,69,0.00,,,0.01,0.000000,,2013-03-15 11:42:00,
2013-03-15 06:52:00,38.0,29.0,-100.00,SSW,209,4.0,7.0,69,0.00,,,0.01,0.000000,,2013-03-15 11:52:00,
2013-03-15 07:02:00,38.0,29.0,-100.00,SSW,209,4.0,7.0,69,0.00,,,0.01,0.000000,,2013-03-15 12:02:00,
2013-03-15 07:32:00,40.0,28.0,-100.00,SW,217,6.0,12.0,62,0.00,,,0.01,1.000000,,2013-03-15 12:32:00,
2013-03-15 07:42:00,40.0,28.0,-100.00,SW,217,6.0,12.0,62,0.00,,,0.01,1.000000,,2013-03-15 12:42:00,
2013-03-15 07:52:00,40.0,28.0,-100.00,SW,217,6.0,12.0,62,0.00,,,0.01,1.000000,,2013-03-15 12:52:00,
2013-03-15 08:02:00,40.0,28.0,-100.00,SW,217,6.0,12.0,62,0.00,,,0.01,1.000000,,2013-03-15 13:02:00,
2013-03-15 08:32:00,42.0,29.0,-100.00,SW,214,7.0,12.0,59,0.00,,,0.01,39.000000,,2013-03-15 13:32:00,
2013-03-15 08:42:00,42.0,29.0,-100.00,SW,214,7.0,12.0,59,0.00,,,0.01,39.000000,,2013-03-15 13:42:00,
2013-03-15 08:52:00,42.0,29.0,-100.00,SW,214,7.0,12.0,59,0.00,,,0.01,39.000000,,2013-03-15 13:52:00,
2013-03-15 09:02:00,42.0,29.0,-100.00,SW,214,7.0,12.0,59,0.00,,,0.01,39.000000,,2013-03-15 14:02:00,
2013-03-15 09:33:00,46.0,30.0,-100.00,SW,218,10.0,14.0,54,0.00,,,0.01,131.000000,,2013-03-15 14:33:00,
2013-03-15 09:42:00,46.0,30.0,-100.00,SW,218,10.0,14.0,54,0.00,,,0.01,131.000000,,2013-03-15 14:42:00,
2013-03-15 09:53:00,46.0,30.0,-100.00,SW,218,10.0,14.0,54,0.00,,,0.01,131.000000,,2013-03-15 14:53:00,
2013-03-15 10:02:00,46.0,30.0,-100.00,SW,218,10.0,14.0,54,0.00,,,0.01,131.000000,,2013-03-15 15:02:00,
2013-03-15 10:33:00,52.0,33.0,-100.00,SW,225,9.0,15.0,48,0.00,,,0.01,413.000000,,2013-03-15 15:33:00,
2013-03-15 10:43:00,52.0,33.0,-100.00,SW,225,9.0,15.0,48,0.00,,,0.01,413.000000,,2013-03-15 15:43:00,
2013-03-15 10:53:00,52.0,33.0,-100.00,SW,225,9.0,15.0,48,0.00,,,0.01,413.000000,,2013-03-15 15:53:00,
2013-03-15 11:03:00,52.0,33.0,-100.00,SW,225,9.0,15.0,48,0.00,,,0.01,413.000000,,2013-03-15 16:03:00,
2013-03-15 11:32:00,57.0,36.0,-100.00,SW,235,7.0,17.0,46,0.00,,,0.01,537.000000,,2013-03-15 16:32:00,
2013-03-15 11:42:00,57.0,36.0,-100.00,SW,235,7.0,17.0,46,0.00,,,0.01,537.000000,,2013-03-15 16:42:00,
2013-03-15 11:52:00,57.0,36.0,-100.00,SW,235,7.0,17.0,46,0.00,,,0.01,537.000000,,2013-03-15 16:52:00,
2013-03-15 12:02:00,57.0,36.0,-100.00,SW,235,7.0,17.0,46,0.00,,,0.01,537.000000,,2013-03-15 17:02:00,
2013-03-15 12:32:00,62.0,40.0,-100.00,SSW,209,6.0,13.0,44,0.00,,,0.01,635.000000,,2013-03-15 17:32:00,
2013-03-15 12:43:00,62.0,40.0,-100.00,SSW,209,6.0,13.0,44,0.00,,,0.01,635.000000,,2013-03-15 17:43:00,
2013-03-15 12:53:00,62.0,40.0,-100.00,SSW,209,6.0,13.0,44,0.00,,,0.01,635.000000,,2013-03-15 17:53:00,
2013-03-15 13:02:00,62.0,40.0,-100.00,SSW,209,6.0,13.0,44,0.00,,,0.01,635.000000,,2013-03-15 18:02:00,
2013-03-15 13:32:00,67.0,41.0,-100.00,SW,235,7.0,12.0,39,0.00,,,0.01,722.000000,,2013-03-15 18:32:00,
2013-03-15 13:42:00,67.0,41.0,-100.00,SW,235,7.0,12.0,39,0.00,,,0.01,722.000000,,2013-03-15 18:42:00,
2013-03-15 13:52:00,67.0,41.0,-100.00,SW,235,7.0,12.0,39,0.00,,,0.01,722.000000,,2013-03-15 18:52:00,
2013-03-15 14:02:00,67.0,41.0,-100.00,SW,235,7.0,12.0,39,0.00,,,0.01,722.000000,,2013-03-15 19:02:00,
2013-03-15 14:32:00,68.0,41.0,-100.00,SW,232,9.0,19.0,38,0.00,,,-99.99,665.000000,,2013-03-15 19:32:00,
2013-03-15 14:42:00,68.0,41.0,-100.00,SW,232,9.0,19.0,38,0.00,,,-99.99,665.000000,,2013-03-15 19:42:00,
2013-03-15 14:52:00,68.0,41.0,-100.00,SW,232,9.0,19.0,38,0.00,,,-99.99,665.000000,,2013-03-15 19:52:00,
2013-03-15 15:02:00,68.0,41.0,-100.00,SW,232,9.0,19.0,38,0.00,,,-99.99,665.000000,,2013-03-15 20:02:00,
2013-03-15 15:32:00,70.0,43.0,-100.00,SW,234,11.0,18.0,37,0.00,,,0.01,633.000000,,2013-03-15 20:32:00,
2013-03-15 15:42:00,70.0,43.0,-100.00,SW,234,11.0,18.0,37,0.00,,,0.01,633.000000,,2013-03-15 20:42:00,
2013-03-15 15:52:00,70.0,43.0,-100.00,SW,234,11.0,18.0,37,0.00,,,0.01,633.000000,,2013-03-15 20:52:00,
2013-03-15 16:02:00,70.0,43.0,-100.00,SW,234,11.0,18.0,37,0.00,,,0.01,633.000000,,2013-03-15 21:02:00,
2013-03-15 16:33:00,72.0,44.0,-100.00,WSW,239,8.0,15.0,36,0.00,,,0.01,453.000000,,2013-03-15 21:33:00,
2013-03-15 16:43:00,72.0,44.0,-100.00,WSW,239,8.0,15.0,36,0.00,,,0.01,453.000000,,2013-03-15 21:43:00,
2013-03-15 16:53:00,72.0,44.0,-100.00,WSW,239,8.0,15.0,36,0.00,,,0.01,453.000000,,2013-03-15 21:53:00,
2013-03-15 17:03:00,72.0,44.0,-100.00,WSW,239,8.0,15.0,36,0.00,,,0.01,453.000000,,2013-03-15 22:03:00,
2013-03-15 17:33:00,70.0,43.0,-100.00,SW,234,8.0,16.0,37,0.00,,,0.01,215.000000,,2013-03-15 22:33:00,
2013-03-15 17:42:00,70.0,43.0,-100.00,SW,234,8.0,16.0,37,0.00,,,0.01,215.000000,,2013-03-15 22:42:00,
2013-03-15 17:53:00,70.0,43.0,-100.00,SW,234,8.0,16.0,37,0.00,,,0.01,215.000000,,2013-03-15 22:53:00,
2013-03-15 18:02:00,70.0,43.0,-100.00,SW,234,8.0,16.0,37,0.00,,,0.01,215.000000,,2013-03-15 23:02:00,
2013-03-15 18:32:00,68.0,41.0,-100.00,SW,233,6.0,12.0,38,0.00,,,0.01,91.000000,,2013-03-15 23:32:00,
2013-03-15 18:42:00,68.0,41.0,-100.00,SW,233,6.0,12.0,38,0.00,,,0.01,91.000000,,2013-03-15 23:42:00,
2013-03-15 18:53:00,68.0,41.0,-100.00,SW,233,6.0,12.0,38,0.00,,,0.01,91.000000,,2013-03-15 23:53:00,
2013-03-15 19:02:00,68.0,41.0,-100.00,SW,233,6.0,12.0,38,0.00,,,0.01,91.000000,,2013-03-16 00:02:00,
2013-03-15 19:32:00,66.0,42.0,-100.00,SSW,203,3.0,10.0,42,0.00,,,0.01,10.000000,,2013-03-16 00:32:00,
2013-03-15 19:42:00,66.0,42.0,-100.00,SSW,203,3.0,10.0,42,0.00,,,0.01,10.000000,,2013-03-16 00:42:00,
2013-03-15 19:52:00,66.0,42.0,-100.00,SSW,203,3.0,10.0,42,0.00,,,0.01,10.000000,,2013-03-16 00:52:00,
2013-03-15 20:02:00,66.0,42.0,-100.00,SSW,203,3.0,10.0,42,0.00,,,0.01,10.000000,,2013-03-16 01:02:00,
2013-03-15 20:32:00,65.0,43.0,-100.00,SSW,213,5.0,6.0,45,0.00,,,0.00,0.000000,,2013-03-16 01:32:00,
2013-03-15 20:42:00,65.0,43.0,-100.00,SSW,213,5.0,6.0,45,0.00,,,0.00,0.000000,,2013-03-16 01:42:00,
2013-03-15 20:53:00,65.0,43.0,-100.00,SSW,213,5.0,6.0,45,0.00,,,0.00,0.000000,,2013-03-16 01:53:00,
2013-03-15 21:02:00,65.0,43.0,-100.00,SSW,213,5.0,6.0,45,0.00,,,0.00,0.000000,,2013-03-16 02:02:00,
2013-03-15 21:33:00,65.0,44.0,-100.00,SW,220,7.0,10.0,47,0.00,,,0.00,0.000000,,2013-03-16 02:33:00,
2013-03-15 21:43:00,65.0,44.0,-100.00,SW,220,7.0,10.0,47,0.00,,,0.00,0.000000,,2013-03-16 02:43:00,
2013-03-15 21:52:00,65.0,44.0,-100.00,SW,220,7.0,10.0,47,0.00,,,0.00,0.000000,,2013-03-16 02:52:00,
2013-03-15 22:02:00,65.0,44.0,-100.00,SW,220,7.0,10.0,47,0.00,,,0.00,0.000000,,2013-03-16 03:02:00,
2013-03-15 22:33:00,66.0,43.0,-100.00,SW,221,10.0,16.0,44,0.00,,,0.00,0.000000,,2013-03-16 03:33:00,
2013-03-15 22:43:00,66.0,43.0,-100.00,SW,221,10.0,16.0,44,0.00,,,0.00,0.000000,,2013-03-16 03:43:00,
2013-03-15 22:53:00,66.0,43.0,-100.00,SW,221,10.0,16.0,44,0.00,,,0.00,0.000000,,2013-03-16 03:53:00,
2013-03-15 23:02:00,66.0,43.0,-100.00,SW,221,10.0,16.0,44,0.00,,,0.00,0.000000,,2013-03-16 04:02:00,
2013-03-15 23:33:00,65.0,43.0,-100.00,SW,220,11.0,17.0,45,0.00,,,0.00,0.000000,,2013-03-16 04:33:00,
2013-03-15 23:43:00,65.0,43.0,-100.00,SW,220,11.0,17.0,45,0.00,,,0.00,0.000000,,2013-03-16 04:43:00,
2013-03-15 23:53:00,65.0,43.0,-100.00,SW,220,11.0,17.0,45,0.00,,,0.00,0.000000,,2013-03-16 04:53:00,